• In Deutschland
  • Länderverzeichnis
  • Für 7 Tage
  • Wassertemperatur
  • Satellitenkarten
  • Wetterkarte
  • Widgets
  • user-avatar
    Anmelden

    Stündliche Wetter Paralia

    Heute, 15 August, Mittwoch

    Zeit Temperatur Niederschläge Wind Luftdruck Luftfeuchtigkeit
    00:00 +24°C° 0,5 mm 0 m/S 746 mmHg 78%
    01:00 +25°C° 0 mm 1 m/S 745 mmHg 80%
    02:00 +25°C° 0,1 mm 1 m/S 745 mmHg 80%
    03:00 +25°C° 0,1 mm 1 m/S 745 mmHg 79%
    04:00 +25°C° 0,1 mm 1 m/S 745 mmHg 79%
    05:00 +26°C° 0 mm 1 m/S 745 mmHg 73%
    06:00 +27°C° 0 mm 1 m/S 745 mmHg 67%
    07:00 +29°C° 0 mm 1 m/S 745 mmHg 58%
    08:00 +31°C° 0 mm 1 m/S 746 mmHg 51%
    09:00 +32°C° 0 mm 1 m/S 746 mmHg 45%
    10:00 +34°C° 0 mm 1 m/S 746 mmHg 38%
    11:00 +35°C° 0 mm 2 m/S 746 mmHg 37%
    12:00 +35°C° 0 mm 2 m/S 746 mmHg 36%
    13:00 +35°C° 0 mm 3 m/S 746 mmHg 36%
    14:00 +35°C° 0 mm 3 m/S 746 mmHg 39%
    15:00 +34°C° 0 mm 2 m/S 746 mmHg 42%
    16:00 +32°C° 0 mm 2 m/S 746 mmHg 45%
    17:00 +31°C° 0,1 mm 2 m/S 745 mmHg 50%
    18:00 +29°C° 0,1 mm 1 m/S 745 mmHg 56%
    19:00 +28°C° 0,1 mm 1 m/S 745 mmHg 61%
    20:00 +27°C° 0 mm 1 m/S 746 mmHg 64%
    21:00 +26°C° 0 mm 1 m/S 746 mmHg 66%
    22:00 +26°C° 0 mm 1 m/S 746 mmHg 69%
    23:00 +26°C° 0 mm 1 m/S 746 mmHg 70%

    Morgen, 16 August, Donnerstag

    Zeit Temperatur Niederschläge Wind Luftdruck Luftfeuchtigkeit
    00:00 +25°C° 0 mm 1 m/S 746 mmHg 71%
    01:00 +25°C° 0 mm 1 m/S 746 mmHg 72%
    02:00 +25°C° 0 mm 1 m/S 745 mmHg 73%
    03:00 +24°C° 0 mm 1 m/S 745 mmHg 73%
    04:00 +24°C° 0 mm 1 m/S 745 mmHg 73%
    05:00 +26°C° 0 mm 1 m/S 745 mmHg 68%
    06:00 +27°C° 0 mm 1 m/S 745 mmHg 62%
    07:00 +28°C° 0 mm 1 m/S 746 mmHg 57%
    08:00 +30°C° 0 mm 1 m/S 746 mmHg 50%
    09:00 +32°C° 0 mm 1 m/S 746 mmHg 43%
    10:00 +33°C° 0 mm 1 m/S 746 mmHg 36%
    11:00 +34°C° 0 mm 2 m/S 746 mmHg 36%
    12:00 +34°C° 0 mm 2 m/S 746 mmHg 37%
    13:00 +34°C° 0 mm 3 m/S 746 mmHg 37%
    14:00 +32°C° 0,1 mm 2 m/S 745 mmHg 40%
    15:00 +32°C° 0,1 mm 2 m/S 745 mmHg 44%
    16:00 +31°C° 0,1 mm 2 m/S 745 mmHg 47%
    17:00 +29°C° 0,5 mm 2 m/S 745 mmHg 53%
    18:00 +28°C° 0,5 mm 1 m/S 745 mmHg 59%
    19:00 +27°C° 0,5 mm 1 m/S 746 mmHg 64%
    20:00 +26°C° 0,3 mm 1 m/S 746 mmHg 66%
    21:00 +25°C° 0,3 mm 1 m/S 746 mmHg 67%
    22:00 +25°C° 0,3 mm 1 m/S 746 mmHg 68%
    23:00 +25°C° 0 mm 1 m/S 746 mmHg 68%

    übermorgen, 17 August, Freitag

    Zeit Temperatur Niederschläge Wind Luftdruck Luftfeuchtigkeit
    00:00 +24°C° 0 mm 1 m/S 746 mmHg 68%
    01:00 +24°C° 0 mm 1 m/S 746 mmHg 68%
    02:00 +24°C° 0 mm 1 m/S 745 mmHg 68%
    03:00 +24°C° 0 mm 1 m/S 745 mmHg 67%
    04:00 +23°C° 0 mm 1 m/S 745 mmHg 67%
    05:00 +25°C° 0 mm 1 m/S 746 mmHg 62%
    06:00 +26°C° 0 mm 1 m/S 746 mmHg 56%
    07:00 +28°C° 0 mm 1 m/S 746 mmHg 51%
    08:00 +30°C° 0 mm 1 m/S 746 mmHg 44%
    09:00 +32°C° 0 mm 1 m/S 747 mmHg 38%
    10:00 +33°C° 0 mm 1 m/S 747 mmHg 32%
    11:00 +35°C° 0 mm 2 m/S 747 mmHg 31%
    12:00 +35°C° 0 mm 2 m/S 747 mmHg 31%
    13:00 +36°C° 0 mm 3 m/S 747 mmHg 30%
    14:00 +35°C° 0 mm 3 m/S 746 mmHg 33%
    15:00 +34°C° 0 mm 3 m/S 746 mmHg 36%
    16:00 +34°C° 0 mm 3 m/S 746 mmHg 38%
    17:00 +31°C° 0 mm 2 m/S 746 mmHg 45%
    18:00 +29°C° 0 mm 2 m/S 746 mmHg 51%
    19:00 +28°C° 0 mm 1 m/S 746 mmHg 57%
    20:00 +27°C° 0 mm 1 m/S 747 mmHg 60%
    21:00 +27°C° 0 mm 1 m/S 747 mmHg 62%
    22:00 +26°C° 0 mm 1 m/S 747 mmHg 64%
    23:00 +26°C° 0 mm 1 m/S 747 mmHg 64%

    18 August, Samstag

    Zeit Temperatur Niederschläge Wind Luftdruck Luftfeuchtigkeit
    00:00 +25°C° 0 mm 1 m/S 747 mmHg 65%
    01:00 +25°C° 0 mm 1 m/S 746 mmHg 65%
    02:00 +25°C° 0 mm 1 m/S 746 mmHg 65%
    03:00 +25°C° 0 mm 1 m/S 746 mmHg 65%
    04:00 +25°C° 0 mm 1 m/S 746 mmHg 65%
    05:00 +26°C° 0 mm 1 m/S 746 mmHg 60%
    06:00 +27°C° 0 mm 1 m/S 747 mmHg 55%
    07:00 +29°C° 0 mm 1 m/S 747 mmHg 49%
    08:00 +31°C° 0 mm 1 m/S 747 mmHg 43%
    09:00 +33°C° 0 mm 1 m/S 747 mmHg 37%
    10:00 +35°C° 0 mm 2 m/S 747 mmHg 31%
    11:00 +36°C° 0 mm 2 m/S 747 mmHg 31%
    12:00 +36°C° 0 mm 3 m/S 747 mmHg 30%
    13:00 +36°C° 0 mm 3 m/S 746 mmHg 30%
    14:00 +36°C° 0 mm 3 m/S 746 mmHg 32%
    15:00 +35°C° 0 mm 3 m/S 746 mmHg 35%
    16:00 +34°C° 0 mm 3 m/S 746 mmHg 38%
    17:00 +32°C° 0 mm 2 m/S 746 mmHg 44%
    18:00 +30°C° 0 mm 2 m/S 746 mmHg 50%
    19:00 +28°C° 0 mm 2 m/S 747 mmHg 56%
    20:00 +28°C° 0 mm 2 m/S 747 mmHg 57%
    21:00 +27°C° 0 mm 2 m/S 747 mmHg 57%
    22:00 +27°C° 0 mm 1 m/S 747 mmHg 58%
    23:00 +26°C° 0 mm 1 m/S 747 mmHg 58%

    19 August, Sonntag

    Zeit Temperatur Niederschläge Wind Luftdruck Luftfeuchtigkeit
    00:00 +26°C° 0 mm 1 m/S 747 mmHg 57%
    01:00 +26°C° 0 mm 1 m/S 747 mmHg 57%
    02:00 +26°C° 0 mm 1 m/S 746 mmHg 56%
    03:00 +25°C° 0 mm 1 m/S 746 mmHg 55%
    04:00 +25°C° 0 mm 1 m/S 746 mmHg 54%
    05:00 +27°C° 0 mm 1 m/S 746 mmHg 50%
    06:00 +28°C° 0 mm 1 m/S 747 mmHg 46%
    07:00 +30°C° 0 mm 1 m/S 747 mmHg 42%
    08:00 +31°C° 0 mm 2 m/S 747 mmHg 38%
    09:00 +34°C° 0 mm 2 m/S 747 mmHg 34%
    10:00 +36°C° 0 mm 2 m/S 747 mmHg 30%
    11:00 +36°C° 0 mm 3 m/S 747 mmHg 29%
    12:00 +37°C° 0 mm 3 m/S 747 mmHg 29%
    13:00 +37°C° 0 mm 3 m/S 747 mmHg 28%
    14:00 +37°C° 0 mm 3 m/S 747 mmHg 29%
    15:00 +36°C° 0 mm 3 m/S 746 mmHg 30%
    16:00 +35°C° 0 mm 3 m/S 746 mmHg 32%
    17:00 +34°C° 0 mm 3 m/S 746 mmHg 37%
    18:00 +31°C° 0 mm 3 m/S 747 mmHg 41%
    19:00 +29°C° 0 mm 2 m/S 747 mmHg 46%
    20:00 +28°C° 0 mm 2 m/S 747 mmHg 46%
    21:00 +28°C° 0 mm 2 m/S 747 mmHg 46%
    22:00 +27°C° 0 mm 2 m/S 747 mmHg 47%
    23:00 +27°C° 0 mm 2 m/S 747 mmHg 46%

    20 August, Montag

    Zeit Temperatur Niederschläge Wind Luftdruck Luftfeuchtigkeit
    00:00 +26°C° 0 mm 2 m/S 747 mmHg 46%
    01:00 +26°C° 0 mm 2 m/S 746 mmHg 46%
    02:00 +26°C° 0 mm 2 m/S 746 mmHg 47%
    03:00 +26°C° 0 mm 2 m/S 746 mmHg 47%
    04:00 +25°C° 0 mm 2 m/S 746 mmHg 48%
    05:00 +27°C° 0 mm 2 m/S 747 mmHg 46%
    06:00 +28°C° 0 mm 2 m/S 747 mmHg 44%
    07:00 +29°C° 0 mm 3 m/S 747 mmHg 42%
    08:00 +31°C° 0 mm 3 m/S 747 mmHg 37%
    09:00 +33°C° 0 mm 3 m/S 748 mmHg 33%
    10:00 +35°C° 0 mm 4 m/S 748 mmHg 28%
    11:00 +35°C° 0 mm 4 m/S 748 mmHg 27%
    12:00 +36°C° 0 mm 4 m/S 747 mmHg 26%
    13:00 +36°C° 0 mm 4 m/S 747 mmHg 25%
    14:00 +36°C° 0 mm 4 m/S 747 mmHg 26%
    15:00 +35°C° 0 mm 4 m/S 747 mmHg 28%
    16:00 +35°C° 0 mm 4 m/S 747 mmHg 29%
    17:00 +33°C° 0 mm 4 m/S 747 mmHg 34%
    18:00 +30°C° 0 mm 3 m/S 747 mmHg 39%
    19:00 +28°C° 0 mm 3 m/S 748 mmHg 44%
    20:00 +27°C° 0 mm 3 m/S 748 mmHg 45%
    21:00 +27°C° 0 mm 2 m/S 748 mmHg 47%
    22:00 +26°C° 0 mm 2 m/S 748 mmHg 49%
    23:00 +26°C° 0 mm 2 m/S 748 mmHg 50%
    Mehr zeigen